Location: Paderno d�Adda
(45.6667°N, 9.4333°E)
Time: 20:50:49
(UTC+00:00)

ATLAS 2AS CENTAUR R/B - Pass Details

Date: 19 September 2020
Orbit: 939 x 1273 km, 63.7° (Epoch: 27 October)

Event Time Altitude Azimuth Distance (km) Brightness Sun altitude
Rises 22:08:39 0° 252° (WSW) 4,222 5.9 -41.0°
Reaches altitude 10° 22:11:45 10° 261° (W) 3,265 5.3 -41.2°
Maximum altitude 22:18:59 37° 326° (NW) 1,883 4.2 -41.7°
Drops below altitude 10° 22:26:06 10° 32° (NNE) 3,199 5.5 -42.0°
Sets 22:29:07 0° 41° (NE) 4,128 6.1 -42.2°
